TEMPSAT 2

Satellite information

Favourite Embed

Satellite Type and Status

PAYLOADIN ORBIT

Key statistics

Satellite TEMPSAT 2 at a glance.

Uptime

20365

Days in orbit

Revolutions

≈ 14.0

Per day

Orbit

LEO

Low Earth Orbit

Inclination

70.0

Latest

Satellite identification and parameters

Extended collection of information and parameters for TEMPSAT 2.

Object identification

Identified? True

Debris? False

Object name: TEMPSAT 2

International designator: 1969-082H

Object number (NORAD): 4168

Object ID (CCSDS): 4168

Country: UNITED STATES OF AMERICA (US)

Current information (Y/N): Y

RCS size: SMALL

Orbital parameters

Period: 103.156 minutes

Inclination: 70.014 deg

SMA: 7286.019 km

Apoapsis: 923.719 km

Periapsis: 892.049 km

RAAN: 124.9204 deg

Eccentricy: 0.0021734

Argument of periapsis: 227.3425 deg

Mean anomaly: 132.585 deg

Mean motion: 13.95941801 rev/day

Mean motion (dot): 0.00000038 rev/day2

B* drag term: 0.000066105 1/REarth

Two-line elements (TLE)

Creation date: July 2, 2025, 5:47 p.m.

Reference frame: TEME

Reference center: EARTH

Epoch: July 2, 2025, 1:04 p.m. UTC

TLE line 0: 0 TEMPSAT 2

TLE line 1: 1 04168U 69082H 25183.54509131 .00000038 00000-0 66105-4 0 9994

TLE line 2: 2 04168 70.0140 124.9204 0021734 227.3425 132.5850 13.95941801839293

Live tracking on map

Real-time ground track for satellite TEMPSAT 2.

In-orbit conjunctions

A list of the most updated potential collisions computed for object TEMPSAT 2.

Target Orbit TCA Probability of collision Miss distance Type
FENGYUN 1C DEB SSO 2025-04-22 21:47:35 0.0001841504 160.0 (m) DEBRIS
METEOR 2-17 DEB LEO 2024-12-20 12:54:20 0.0002377663 494.0 (m) DEBRIS
COSMOS 970 DEB LEO 2024-11-13 18:14:56 0.0002568181 163.0 (m) DEBRIS
FENGYUN 1C DEB SSO 2024-10-06 12:40:56 0.0001293048 773.0 (m) DEBRIS

Associated space launch

Poppy was the follow-on ELINT system, which succeeded the Grab ELINT satellite system.

TEMPSAT 2 was lifted into orbit during the mission ‘Thorad SLV-2G Agena D | Poppy 8A,B,C,D’, on board a Thorad SLV-2G Agena D space rocket.

The launch took place on Sept. 30, 1969, 1:40 p.m. from Space Launch Complex 1W.

For more information about the launch, click the button.

Launch to space Thorad SLV-2G Agena D | Poppy 8A,B,C,D
Thorad SLV-2G Agena D | Poppy 8A,B,C,D

Agency: N/A

Status: Launch Successful

Launch date: Sept. 30, 1969, 1:40 p.m. UTC

Rocket: Thorad SLV-2G Agena D

Launch pad: Space Launch Complex 1W

Location: Vandenberg SFB, CA, USA

...

Latest news about this satellite

There are no fresh news available about this satellite. Check back as we update our databases every day.


Newsletter sign-up

Weekly statistics, charts and insights to help you stay on top of the space industry.